Time,TemperatureF,DewpointF,PressureIn,WindDirection,WindDirectionDegrees,WindSpeedMPH,WindSpeedGustMPH,Humidity,HourlyPrecipIn,Conditions,Clouds,dailyrainin,SoftwareType,DateUTC
2013-02-18 00:00:00,11.8,-1.2,29.21,WSW,257,0.0,0.0,55,0.00,,,0.00,VWS V14.00,2013-02-18 05:00:00,
2013-02-18 00:05:00,12.0,-1.0,29.21,WSW,257,0.0,0.0,55,0.00,,,0.00,VWS V14.00,2013-02-18 05:05:00,
2013-02-18 00:10:00,12.0,-1.0,29.21,WSW,257,2.2,2.2,55,0.00,,,0.00,VWS V14.00,2013-02-18 05:10:00,
2013-02-18 00:15:00,12.4,-0.7,29.21,SSE,166,0.0,3.6,55,0.00,,,0.00,VWS V14.00,2013-02-18 05:15:00,
2013-02-18 00:20:00,12.7,-0.4,29.21,SE,125,0.0,3.6,55,0.00,,,0.00,VWS V14.00,2013-02-18 05:20:00,
2013-02-18 00:25:00,12.7,-0.4,29.21,SSE,155,0.0,3.6,55,0.00,,,0.00,VWS V14.00,2013-02-18 05:25:00,
2013-02-18 00:30:00,12.9,-0.2,29.21,SSE,155,0.0,0.0,55,0.00,,,0.00,VWS V14.00,2013-02-18 05:30:00,
2013-02-18 00:35:00,13.3,0.2,29.21,SSE,147,0.0,0.0,55,0.00,,,0.00,VWS V14.00,2013-02-18 05:35:00,
2013-02-18 00:40:00,13.3,0.2,29.21,SE,139,0.0,0.0,55,0.00,,,0.00,VWS V14.00,2013-02-18 05:40:00,
2013-02-18 00:45:00,13.5,0.3,29.21,SSE,149,0.0,0.0,55,0.00,,,0.00,VWS V14.00,2013-02-18 05:45:00,
2013-02-18 00:50:00,13.5,0.3,29.21,SE,146,2.2,3.6,55,0.00,,,0.00,VWS V14.00,2013-02-18 05:50:00,
2013-02-18 00:55:00,13.6,0.5,29.21,SSE,168,0.0,4.0,55,0.00,,,0.00,VWS V14.00,2013-02-18 05:55:00,
2013-02-18 01:00:00,13.8,0.6,29.21,ESE,121,0.0,0.0,55,0.00,,,0.00,VWS V14.00,2013-02-18 06:00:00,
2013-02-18 01:05:00,14.2,3.2,29.21,SSE,156,0.0,5.8,61,0.00,,,0.00,VWS V14.00,2013-02-18 06:05:00,
2013-02-18 01:12:00,14.4,3.4,29.21,SSE,167,0.0,0.0,61,0.00,,,0.00,VWS V14.00,2013-02-18 06:12:00,
2013-02-18 01:17:00,14.4,3.4,29.21,SSE,159,0.0,0.0,61,0.00,,,0.00,VWS V14.00,2013-02-18 06:17:00,
2013-02-18 01:22:00,14.4,3.4,29.21,South,179,3.6,4.5,61,0.00,,,0.00,VWS V14.00,2013-02-18 06:22:00,
2013-02-18 01:27:00,14.5,3.5,29.21,SSE,157,0.0,4.5,61,0.00,,,0.00,VWS V14.00,2013-02-18 06:27:00,
2013-02-18 01:32:00,14.7,3.7,29.21,South,172,7.6,7.6,61,0.00,,,0.00,VWS V14.00,2013-02-18 06:32:00,
2013-02-18 01:37:00,15.1,4.1,29.21,SSE,163,2.7,8.3,61,0.00,,,0.00,VWS V14.00,2013-02-18 06:37:00,
2013-02-18 01:42:00,15.1,4.1,29.21,SE,142,4.0,8.3,61,0.00,,,0.00,VWS V14.00,2013-02-18 06:42:00,
2013-02-18 01:47:00,15.3,4.2,29.21,South,171,2.7,8.3,61,0.00,,,0.00,VWS V14.00,2013-02-18 06:47:00,
2013-02-18 01:52:00,15.3,3.9,29.21,SSE,150,0.0,8.3,60,0.00,,,0.00,VWS V14.00,2013-02-18 06:52:00,
2013-02-18 01:57:00,15.3,3.9,29.21,SSE,150,3.1,8.3,60,0.00,,,0.00,VWS V14.00,2013-02-18 06:57:00,
2013-02-18 02:02:00,15.4,4.1,29.18,South,177,4.0,4.0,60,0.00,,,0.00,VWS V14.00,2013-02-18 07:02:00,
2013-02-18 02:07:00,15.4,4.1,29.18,South,184,0.0,4.0,60,0.00,,,0.00,VWS V14.00,2013-02-18 07:07:00,
2013-02-18 02:12:00,15.4,4.1,29.18,SSE,153,0.0,4.9,60,0.00,,,0.00,VWS V14.00,2013-02-18 07:12:00,
2013-02-18 02:17:00,15.4,4.1,29.21,SSE,153,0.0,4.9,60,0.00,,,0.00,VWS V14.00,2013-02-18 07:17:00,
2013-02-18 02:22:00,15.6,4.2,29.21,South,175,3.6,4.9,60,0.00,,,0.00,VWS V14.00,2013-02-18 07:22:00,
2013-02-18 02:27:00,15.8,4.4,29.21,SSE,167,4.0,5.4,60,0.00,,,0.00,VWS V14.00,2013-02-18 07:27:00,
2013-02-18 02:32:00,16.0,4.6,29.21,South,188,2.7,5.4,60,0.00,,,0.00,VWS V14.00,2013-02-18 07:32:00,
2013-02-18 02:37:00,16.0,4.6,29.21,SE,145,4.0,5.8,60,0.00,,,0.00,VWS V14.00,2013-02-18 07:37:00,
2013-02-18 02:42:00,16.2,4.7,29.21,SSE,162,0.0,5.8,60,0.00,,,0.00,VWS V14.00,2013-02-18 07:42:00,
2013-02-18 02:47:00,16.2,4.7,29.21,SE,142,2.7,5.8,60,0.00,,,0.00,VWS V14.00,2013-02-18 07:47:00,
2013-02-18 02:52:00,16.2,4.7,29.21,SSE,160,0.0,5.8,60,0.00,,,0.00,VWS V14.00,2013-02-18 07:52:00,
2013-02-18 02:57:00,16.2,4.7,29.21,SSE,160,0.0,5.8,60,0.00,,,0.00,VWS V14.00,2013-02-18 07:57:00,
2013-02-18 03:02:00,16.2,4.7,29.18,SE,131,2.7,5.4,60,0.00,,,0.00,VWS V14.00,2013-02-18 08:02:00,
2013-02-18 03:07:00,16.2,4.7,29.18,SE,132,3.6,5.4,60,0.00,,,0.00,VWS V14.00,2013-02-18 08:07:00,
2013-02-18 03:12:00,16.2,4.7,29.18,SE,135,3.1,5.4,60,0.00,,,0.00,VWS V14.00,2013-02-18 08:12:00,
2013-02-18 03:17:00,16.2,4.7,29.18,SE,135,2.7,5.4,60,0.00,,,0.00,VWS V14.00,2013-02-18 08:17:00,
2013-02-18 03:22:00,16.0,4.9,29.18,SE,135,0.0,5.4,61,0.00,,,0.00,VWS V14.00,2013-02-18 08:22:00,
2013-02-18 03:27:00,16.0,4.9,29.18,SSE,153,2.7,5.4,61,0.00,,,0.00,VWS V14.00,2013-02-18 08:27:00,
2013-02-18 03:32:00,16.0,4.9,29.18,SE,142,0.0,2.2,61,0.00,,,0.00,VWS V14.00,2013-02-18 08:32:00,
2013-02-18 03:37:00,16.2,5.1,29.18,SE,142,0.0,2.2,61,0.00,,,0.00,VWS V14.00,2013-02-18 08:37:00,
2013-02-18 03:42:00,16.2,5.4,29.18,SE,142,0.0,2.2,62,0.00,,,0.00,VWS V14.00,2013-02-18 08:42:00,
2013-02-18 03:47:00,16.5,5.8,29.18,SE,142,2.7,3.1,62,0.00,,,0.00,VWS V14.00,2013-02-18 08:47:00,
2013-02-18 03:52:00,16.5,6.1,29.18,SE,141,0.0,4.0,63,0.00,,,0.00,VWS V14.00,2013-02-18 08:52:00,
2013-02-18 03:57:00,16.5,6.1,29.18,SSE,162,0.0,4.9,63,0.00,,,0.00,VWS V14.00,2013-02-18 08:57:00,
2013-02-18 04:02:00,16.7,6.3,29.18,SSE,162,0.0,0.0,63,0.00,,,0.00,VWS V14.00,2013-02-18 09:02:00,
2013-02-18 04:07:00,16.7,6.7,29.18,South,184,2.7,4.0,64,0.00,,,0.00,VWS V14.00,2013-02-18 09:07:00,
2013-02-18 04:12:00,16.9,6.8,29.18,South,184,0.0,4.0,64,0.00,,,0.00,VWS V14.00,2013-02-18 09:12:00,
2013-02-18 04:17:00,16.9,6.8,29.18,South,184,3.1,4.0,64,0.00,,,0.00,VWS V14.00,2013-02-18 09:17:00,
2013-02-18 04:23:00,17.1,7.0,29.18,SSE,153,0.0,4.0,64,0.00,,,0.00,VWS V14.00,2013-02-18 09:23:00,
2013-02-18 04:28:00,17.1,7.0,29.18,SE,138,2.7,4.0,64,0.00,,,0.00,VWS V14.00,2013-02-18 09:28:00,
2013-02-18 04:33:00,17.4,7.3,29.15,SE,138,3.1,4.0,64,0.00,,,0.00,VWS V14.00,2013-02-18 09:33:00,
2013-02-18 04:38:00,17.4,7.3,29.15,SSE,163,4.0,4.9,64,0.00,,,0.00,VWS V14.00,2013-02-18 09:38:00,
2013-02-18 04:43:00,17.6,7.5,29.15,SSE,164,0.0,4.9,64,0.00,,,0.00,VWS V14.00,2013-02-18 09:43:00,
2013-02-18 04:48:00,17.6,7.5,29.15,SE,132,3.1,4.9,64,0.00,,,0.00,VWS V14.00,2013-02-18 09:48:00,
2013-02-18 04:53:00,17.8,7.7,29.15,South,173,4.0,4.9,64,0.00,,,0.00,VWS V14.00,2013-02-18 09:53:00,
2013-02-18 04:58:00,17.8,7.7,29.15,SE,137,4.0,4.9,64,0.00,,,0.00,VWS V14.00,2013-02-18 09:58:00,
2013-02-18 05:03:00,18.0,7.8,29.15,SE,139,2.2,4.9,64,0.00,,,0.00,VWS V14.00,2013-02-18 10:03:00,
2013-02-18 05:08:00,18.0,7.8,29.15,SE,145,2.2,5.4,64,0.00,,,0.00,VWS V14.00,2013-02-18 10:08:00,
2013-02-18 05:13:00,18.0,7.5,29.15,South,179,3.1,5.4,63,0.00,,,0.00,VWS V14.00,2013-02-18 10:13:00,
2013-02-18 05:18:00,17.8,7.3,29.15,SE,126,3.6,5.8,63,0.00,,,0.00,VWS V14.00,2013-02-18 10:18:00,
2013-02-18 05:23:00,17.8,7.3,29.15,SE,129,2.7,5.8,63,0.00,,,0.00,VWS V14.00,2013-02-18 10:23:00,
2013-02-18 05:28:00,17.8,7.3,29.15,SE,128,0.0,5.8,63,0.00,,,0.00,VWS V14.00,2013-02-18 10:28:00,
2013-02-18 05:33:00,17.8,7.3,29.15,SE,138,4.9,4.9,63,0.00,,,0.00,VWS V14.00,2013-02-18 10:33:00,
2013-02-18 05:38:00,17.8,7.3,29.15,SE,137,3.6,5.8,63,0.00,,,0.00,VWS V14.00,2013-02-18 10:38:00,
2013-02-18 05:43:00,18.0,7.5,29.15,SE,125,2.7,5.8,63,0.00,,,0.00,VWS V14.00,2013-02-18 10:43:00,
2013-02-18 05:48:00,18.1,8.0,29.15,SE,143,2.7,5.8,64,0.00,,,0.00,VWS V14.00,2013-02-18 10:48:00,
2013-02-18 05:53:00,18.3,8.2,29.15,SE,143,5.8,6.3,64,0.00,,,0.00,VWS V14.00,2013-02-18 10:53:00,
2013-02-18 05:58:00,18.3,8.2,29.15,South,184,5.4,6.7,64,0.00,,,0.00,VWS V14.00,2013-02-18 10:58:00,
2013-02-18 06:03:00,18.5,8.4,29.15,SE,130,0.0,4.9,64,0.00,,,0.00,VWS V14.00,2013-02-18 11:03:00,
2013-02-18 06:08:00,18.5,8.4,29.15,South,187,0.0,5.4,64,0.00,,,0.00,VWS V14.00,2013-02-18 11:08:00,
2013-02-18 06:13:00,18.5,8.4,29.15,SE,127,2.2,5.4,64,0.00,,,0.00,VWS V14.00,2013-02-18 11:13:00,
2013-02-18 06:18:00,18.7,8.5,29.12,SE,128,3.1,8.7,64,0.00,,,0.00,VWS V14.00,2013-02-18 11:18:00,
2013-02-18 06:23:00,18.7,8.5,29.12,SE,130,7.6,8.7,64,0.00,,,0.00,VWS V14.00,2013-02-18 11:23:00,
2013-02-18 06:28:00,18.7,8.5,29.12,SE,138,3.1,8.7,64,0.00,,,0.00,VWS V14.00,2013-02-18 11:28:00,
2013-02-18 06:33:00,18.7,8.5,29.12,SE,141,3.6,5.4,64,0.00,,,0.00,VWS V14.00,2013-02-18 11:33:00,
2013-02-18 06:38:00,18.7,8.5,29.12,SSE,165,4.0,6.3,64,0.00,,,0.00,VWS V14.00,2013-02-18 11:38:00,
2013-02-18 06:43:00,18.5,8.4,29.12,SE,133,0.0,6.3,64,0.00,,,0.00,VWS V14.00,2013-02-18 11:43:00,
2013-02-18 06:48:00,18.7,8.5,29.12,ESE,121,3.1,8.1,64,0.00,,,0.00,VWS V14.00,2013-02-18 11:48:00,
2013-02-18 06:53:00,18.7,8.5,29.12,SE,131,3.6,8.1,64,0.00,,,0.00,VWS V14.00,2013-02-18 11:53:00,
2013-02-18 06:58:00,19.0,8.9,29.12,SE,140,5.8,8.1,64,0.00,,,0.00,VWS V14.00,2013-02-18 11:58:00,
2013-02-18 07:03:00,19.2,9.4,29.12,SSE,160,6.3,6.7,65,0.00,,,0.00,VWS V14.00,2013-02-18 12:03:00,
2013-02-18 07:08:00,19.2,9.4,29.12,SSE,157,4.5,8.1,65,0.00,,,0.00,VWS V14.00,2013-02-18 12:08:00,
2013-02-18 07:13:00,19.4,9.6,29.12,SSE,156,7.6,10.5,65,0.00,,,0.00,VWS V14.00,2013-02-18 12:13:00,
2013-02-18 07:18:00,19.6,9.4,29.12,SSE,168,8.1,10.5,64,0.00,,,0.00,VWS V14.00,2013-02-18 12:18:00,
2013-02-18 07:23:00,19.8,9.6,29.12,SE,144,5.4,10.5,64,0.00,,,0.00,VWS V14.00,2013-02-18 12:23:00,
2013-02-18 07:28:00,19.9,9.7,29.12,SE,139,6.3,10.5,64,0.00,,,0.00,VWS V14.00,2013-02-18 12:28:00,
2013-02-18 07:33:00,19.9,9.7,29.09,SE,130,5.4,8.7,64,0.00,,,0.00,VWS V14.00,2013-02-18 12:33:00,
2013-02-18 07:38:00,19.9,9.7,29.09,SSW,194,3.6,8.7,64,0.00,,,0.00,VWS V14.00,2013-02-18 12:38:00,
2013-02-18 07:43:00,19.9,9.7,29.09,SE,129,8.7,8.7,64,0.00,,,0.00,VWS V14.00,2013-02-18 12:43:00,
2013-02-18 07:48:00,19.9,9.4,29.09,SE,136,5.4,8.7,63,0.00,,,0.00,VWS V14.00,2013-02-18 12:48:00,
2013-02-18 07:53:00,19.9,9.4,29.09,SSE,159,3.6,8.7,63,0.00,,,0.00,VWS V14.00,2013-02-18 12:53:00,
2013-02-18 07:58:00,19.9,9.4,29.09,SSE,155,2.7,8.7,63,0.00,,,0.00,VWS V14.00,2013-02-18 12:58:00,
2013-02-18 08:04:00,20.1,9.6,29.09,SSE,150,3.1,7.2,63,0.00,,,0.00,VWS V14.00,2013-02-18 13:04:00,
2013-02-18 08:09:00,20.3,10.1,29.09,SE,135,4.0,8.3,64,0.00,,,0.00,VWS V14.00,2013-02-18 13:09:00,
2013-02-18 08:14:00,20.5,9.9,29.09,SSE,150,4.9,8.3,63,0.00,,,0.00,VWS V14.00,2013-02-18 13:14:00,
2013-02-18 08:19:00,20.5,9.9,29.09,ESE,119,4.9,8.3,63,0.00,,,0.00,VWS V14.00,2013-02-18 13:19:00,
2013-02-18 08:24:00,20.7,9.7,29.09,SSE,150,5.4,10.1,62,0.00,,,0.00,VWS V14.00,2013-02-18 13:24:00,
2013-02-18 08:29:00,21.0,10.1,29.09,SE,138,3.6,10.5,62,0.00,,,0.00,VWS V14.00,2013-02-18 13:29:00,
2013-02-18 08:34:00,21.4,10.0,29.09,SSE,152,4.0,8.1,61,0.00,,,0.00,VWS V14.00,2013-02-18 13:34:00,
2013-02-18 08:39:00,21.7,10.4,29.09,SSE,162,4.5,8.1,61,0.00,,,0.00,VWS V14.00,2013-02-18 13:39:00,
2013-02-18 08:44:00,22.3,10.9,29.09,SSE,149,5.8,8.3,61,0.00,,,0.00,VWS V14.00,2013-02-18 13:44:00,
2013-02-18 08:49:00,22.8,11.0,29.06,SSE,149,4.0,10.1,60,0.00,,,0.00,VWS V14.00,2013-02-18 13:49:00,
2013-02-18 08:54:00,23.0,10.8,29.06,ESE,118,5.4,10.1,59,0.00,,,0.00,VWS V14.00,2013-02-18 13:54:00,
2013-02-18 08:59:00,23.4,10.8,29.06,South,179,7.2,10.1,58,0.00,,,0.00,VWS V14.00,2013-02-18 13:59:00,
2013-02-18 09:04:00,23.5,10.9,29.06,SE,133,4.0,11.0,58,0.00,,,0.00,VWS V14.00,2013-02-18 14:04:00,
2013-02-18 09:09:00,24.3,11.2,29.06,ESE,116,6.3,12.3,57,0.00,,,0.00,VWS V14.00,2013-02-18 14:09:00,
2013-02-18 09:14:00,24.4,11.4,29.06,ESE,116,8.3,12.3,57,0.00,,,0.00,VWS V14.00,2013-02-18 14:14:00,
2013-02-18 09:19:00,24.8,11.3,29.06,SE,130,8.3,12.3,56,0.00,,,0.00,VWS V14.00,2013-02-18 14:19:00,
2013-02-18 09:24:00,25.2,11.3,29.06,SE,142,5.4,12.3,55,0.00,,,0.00,VWS V14.00,2013-02-18 14:24:00,
2013-02-18 09:29:00,25.5,12.0,29.06,ESE,102,4.9,12.3,56,0.00,,,0.00,VWS V14.00,2013-02-18 14:29:00,
2013-02-18 09:34:00,26.1,12.1,29.06,SSE,152,5.4,12.8,55,0.00,,,0.00,VWS V14.00,2013-02-18 14:34:00,
2013-02-18 09:39:00,27.1,12.7,29.06,ESE,106,3.6,12.8,54,0.00,,,0.00,VWS V14.00,2013-02-18 14:39:00,
2013-02-18 09:44:00,27.1,12.7,29.06,SE,133,5.4,12.8,54,0.00,,,0.00,VWS V14.00,2013-02-18 14:44:00,
2013-02-18 09:49:00,27.5,12.6,29.03,SSE,147,5.8,12.8,53,0.00,,,0.00,VWS V14.00,2013-02-18 14:49:00,
2013-02-18 09:54:00,28.4,13.5,29.03,ESE,115,5.8,13.2,53,0.00,,,0.00,VWS V14.00,2013-02-18 14:54:00,
2013-02-18 09:59:00,29.3,13.9,29.03,ESE,120,5.8,13.2,52,0.00,,,0.00,VWS V14.00,2013-02-18 14:59:00,
2013-02-18 10:04:00,30.0,14.1,29.03,SE,142,8.3,11.9,51,0.00,,,0.00,VWS V14.00,2013-02-18 15:04:00,
2013-02-18 10:09:00,30.6,14.1,29.03,SE,125,5.4,11.9,50,0.00,,,0.00,VWS V14.00,2013-02-18 15:09:00,
2013-02-18 10:14:00,30.7,13.9,29.03,SE,137,9.6,14.1,49,0.00,,,0.00,VWS V14.00,2013-02-18 15:14:00,
2013-02-18 10:19:00,31.5,14.5,29.03,SE,132,8.7,14.1,49,0.00,,,0.00,VWS V14.00,2013-02-18 15:19:00,
2013-02-18 10:24:00,31.5,14.1,29.03,SE,126,7.6,14.1,48,0.00,,,0.00,VWS V14.00,2013-02-18 15:24:00,
2013-02-18 10:29:00,31.5,14.1,29.03,South,169,8.1,14.1,48,0.00,,,0.00,VWS V14.00,2013-02-18 15:29:00,
2013-02-18 10:34:00,32.2,14.7,29.03,SE,127,10.5,13.6,48,0.00,,,0.00,VWS V14.00,2013-02-18 15:34:00,
2013-02-18 10:39:00,32.2,14.7,29.03,SSE,162,6.3,13.6,48,0.00,,,0.00,VWS V14.00,2013-02-18 15:39:00,
2013-02-18 10:44:00,32.4,14.4,29.03,SSE,164,7.6,13.6,47,0.00,,,0.00,VWS V14.00,2013-02-18 15:44:00,
2013-02-18 10:49:00,32.2,14.2,29.00,East,82,8.7,13.6,47,0.00,,,0.00,VWS V14.00,2013-02-18 15:49:00,
2013-02-18 10:54:00,32.5,14.6,29.00,ESE,105,7.6,13.6,47,0.00,,,0.00,VWS V14.00,2013-02-18 15:54:00,
2013-02-18 10:59:00,32.0,13.6,29.00,SSE,153,8.1,15.0,46,0.00,,,0.00,VWS V14.00,2013-02-18 15:59:00,
2013-02-18 11:04:00,32.5,14.6,29.00,SE,124,5.4,8.7,47,0.00,,,0.00,VWS V14.00,2013-02-18 16:04:00,
2013-02-18 11:09:00,32.7,14.7,29.00,ESE,117,8.1,9.6,47,0.00,,,0.00,VWS V14.00,2013-02-18 16:09:00,
2013-02-18 11:14:00,33.3,15.7,29.00,SSE,168,9.2,10.1,48,0.00,,,0.00,VWS V14.00,2013-02-18 16:14:00,
2013-02-18 11:19:00,33.8,15.7,29.00,SE,143,5.8,10.5,47,0.00,,,0.00,VWS V14.00,2013-02-18 16:19:00,
2013-02-18 11:24:00,33.8,15.2,29.00,SE,125,5.4,10.5,46,0.00,,,0.00,VWS V14.00,2013-02-18 16:24:00,
2013-02-18 11:29:00,34.3,15.7,29.00,SSE,152,3.1,10.5,46,0.00,,,0.00,VWS V14.00,2013-02-18 16:29:00,
2013-02-18 11:34:00,34.3,15.2,29.00,ESE,109,6.3,13.2,45,0.00,,,0.00,VWS V14.00,2013-02-18 16:34:00,
2013-02-18 11:40:00,34.2,15.1,29.00,SE,143,10.1,13.2,45,0.00,,,0.00,VWS V14.00,2013-02-18 16:40:00,
2013-02-18 11:45:00,34.7,16.0,29.00,SSW,197,9.6,13.2,46,0.00,,,0.00,VWS V14.00,2013-02-18 16:45:00,
2013-02-18 11:50:00,34.9,15.7,28.97,SE,127,7.6,13.2,45,0.00,,,0.00,VWS V14.00,2013-02-18 16:50:00,
2013-02-18 11:55:00,34.7,15.6,28.97,South,182,8.3,13.2,45,0.00,,,0.00,VWS V14.00,2013-02-18 16:55:00,
2013-02-18 12:00:00,35.8,16.5,28.97,South,189,5.8,13.2,45,0.00,,,0.00,VWS V14.00,2013-02-18 17:00:00,
2013-02-18 12:05:00,36.7,17.4,28.97,ESE,106,7.6,11.4,45,0.00,,,0.00,VWS V14.00,2013-02-18 17:05:00,
2013-02-18 12:10:00,36.3,16.5,28.97,SSE,152,8.3,11.4,44,0.00,,,0.00,VWS V14.00,2013-02-18 17:10:00,
2013-02-18 12:15:00,36.1,16.4,28.97,SSE,150,8.7,12.3,44,0.00,,,0.00,VWS V14.00,2013-02-18 17:15:00,
2013-02-18 12:20:00,36.3,16.5,28.97,SSE,151,5.8,15.4,44,0.00,,,0.00,VWS V14.00,2013-02-18 17:20:00,
2013-02-18 12:25:00,36.9,17.0,28.97,SSW,193,0.0,15.4,44,0.00,,,0.00,VWS V14.00,2013-02-18 17:25:00,
2013-02-18 12:30:00,36.3,16.5,28.97,SSE,161,8.7,15.4,44,0.00,,,0.00,VWS V14.00,2013-02-18 17:30:00,
2013-02-18 12:35:00,36.7,16.8,28.97,ESE,103,7.6,12.8,44,0.00,,,0.00,VWS V14.00,2013-02-18 17:35:00,
2013-02-18 12:40:00,36.9,17.0,28.97,South,176,8.7,12.8,44,0.00,,,0.00,VWS V14.00,2013-02-18 17:40:00,
2013-02-18 12:45:00,37.6,17.7,28.97,ESE,120,6.3,12.8,44,0.00,,,0.00,VWS V14.00,2013-02-18 17:45:00,
2013-02-18 12:50:00,37.9,18.0,28.94,SSE,155,7.6,12.8,44,0.00,,,0.00,VWS V14.00,2013-02-18 17:50:00,
2013-02-18 12:55:00,37.6,17.1,28.94,South,173,8.7,12.8,43,0.00,,,0.00,VWS V14.00,2013-02-18 17:55:00,
2013-02-18 13:00:00,38.1,18.1,28.94,SE,133,8.1,8.1,44,0.00,,,0.00,VWS V14.00,2013-02-18 18:00:00,
2013-02-18 13:05:00,38.5,18.5,28.94,South,182,4.0,12.8,44,0.00,,,0.00,VWS V14.00,2013-02-18 18:05:00,
2013-02-18 13:10:00,38.8,18.8,28.94,SSE,154,8.1,12.8,44,0.00,,,0.00,VWS V14.00,2013-02-18 18:10:00,
2013-02-18 13:15:00,38.8,18.8,28.94,SSE,157,6.3,13.2,44,0.00,,,0.00,VWS V14.00,2013-02-18 18:15:00,
2013-02-18 13:20:00,38.1,18.1,28.94,SE,145,8.7,13.2,44,0.00,,,0.00,VWS V14.00,2013-02-18 18:20:00,
2013-02-18 13:25:00,38.5,18.5,28.94,SSW,200,3.6,13.2,44,0.00,,,0.00,VWS V14.00,2013-02-18 18:25:00,
2013-02-18 13:30:00,39.4,19.3,28.94,SSE,154,3.1,3.1,44,0.00,,,0.00,VWS V14.00,2013-02-18 18:30:00,
2013-02-18 13:35:00,39.9,19.8,28.91,SSE,154,4.9,10.5,44,0.00,,,0.00,VWS V14.00,2013-02-18 18:35:00,
2013-02-18 13:40:00,41.0,20.2,28.91,SSE,163,4.0,10.5,43,0.00,,,0.00,VWS V14.00,2013-02-18 18:40:00,
2013-02-18 13:45:00,41.7,20.9,28.91,SE,127,5.8,10.5,43,0.00,,,0.00,VWS V14.00,2013-02-18 18:45:00,
2013-02-18 13:50:00,42.3,21.4,28.91,SSW,207,6.3,11.0,43,0.00,,,0.00,VWS V14.00,2013-02-18 18:50:00,
2013-02-18 13:55:00,41.2,19.9,28.91,SSW,205,10.1,12.8,42,0.00,,,0.00,VWS V14.00,2013-02-18 18:55:00,
2013-02-18 14:00:00,41.4,20.6,28.91,SSE,164,5.8,5.8,43,0.00,,,0.00,VWS V14.00,2013-02-18 19:00:00,
2013-02-18 14:05:00,41.5,20.7,28.91,SSE,154,8.1,10.5,43,0.00,,,0.00,VWS V14.00,2013-02-18 19:05:00,
2013-02-18 14:10:00,42.1,21.2,28.91,ESE,118,4.0,10.5,43,0.00,,,0.00,VWS V14.00,2013-02-18 19:10:00,
2013-02-18 14:15:00,41.7,20.9,28.91,SE,143,5.4,10.5,43,0.00,,,0.00,VWS V14.00,2013-02-18 19:15:00,
2013-02-18 14:20:00,41.9,21.0,28.88,SE,135,8.7,10.5,43,0.00,,,0.00,VWS V14.00,2013-02-18 19:20:00,
2013-02-18 14:25:00,42.3,21.9,28.88,SW,216,7.6,12.3,44,0.00,,,0.00,VWS V14.00,2013-02-18 19:25:00,
2013-02-18 14:30:00,41.7,21.4,28.88,SSE,164,3.6,5.4,44,0.00,,,0.00,VWS V14.00,2013-02-18 19:30:00,
2013-02-18 14:35:00,42.1,21.8,28.88,SSE,149,5.8,10.5,44,0.00,,,0.00,VWS V14.00,2013-02-18 19:35:00,
2013-02-18 14:40:00,42.3,21.9,28.88,SSW,194,8.7,11.0,44,0.00,,,0.00,VWS V14.00,2013-02-18 19:40:00,
2013-02-18 14:45:00,42.3,21.9,28.88,SSW,204,4.5,11.0,44,0.00,,,0.00,VWS V14.00,2013-02-18 19:45:00,
2013-02-18 14:50:00,42.4,22.6,28.88,South,174,6.3,11.0,45,0.00,,,0.00,VWS V14.00,2013-02-18 19:50:00,
2013-02-18 14:55:00,42.3,22.5,28.88,SSE,156,5.8,12.8,45,0.00,,,0.00,VWS V14.00,2013-02-18 19:55:00,
2013-02-18 15:00:00,42.6,22.8,28.88,SSE,161,4.9,6.3,45,0.00,,,0.00,VWS V14.00,2013-02-18 20:00:00,
2013-02-18 15:05:00,42.3,22.5,28.88,SSE,157,5.8,9.6,45,0.00,,,0.00,VWS V14.00,2013-02-18 20:05:00,
2013-02-18 15:10:00,42.1,22.8,28.88,SSE,158,7.6,10.5,46,0.00,,,0.00,VWS V14.00,2013-02-18 20:10:00,
2013-02-18 15:15:00,42.3,23.0,28.88,SSE,147,8.1,11.0,46,0.00,,,0.00,VWS V14.00,2013-02-18 20:15:00,
2013-02-18 15:20:00,42.1,23.3,28.85,SSW,208,8.3,11.0,47,0.00,,,0.00,VWS V14.00,2013-02-18 20:20:00,
2013-02-18 15:25:00,41.9,23.2,28.85,South,189,6.3,14.5,47,0.00,,,0.00,VWS V14.00,2013-02-18 20:25:00,
2013-02-18 15:31:00,42.3,24.0,28.85,SE,136,3.1,4.0,48,0.00,,,0.00,VWS V14.00,2013-02-18 20:31:00,
2013-02-18 15:36:00,42.4,24.1,28.85,SSE,150,4.9,8.3,48,0.00,,,0.00,VWS V14.00,2013-02-18 20:36:00,
2013-02-18 15:41:00,42.4,23.6,28.85,SSE,159,8.3,10.1,47,0.00,,,0.00,VWS V14.00,2013-02-18 20:41:00,
2013-02-18 15:46:00,42.4,24.1,28.85,SE,143,5.4,10.1,48,0.00,,,0.00,VWS V14.00,2013-02-18 20:46:00,
2013-02-18 15:51:00,42.4,24.1,28.85,SSE,156,7.6,10.1,48,0.00,,,0.00,VWS V14.00,2013-02-18 20:51:00,
2013-02-18 15:56:00,42.1,23.3,28.85,SE,129,6.3,13.2,47,0.00,,,0.00,VWS V14.00,2013-02-18 20:56:00,
2013-02-18 16:01:00,41.9,23.7,28.85,SE,133,7.6,8.7,48,0.00,,,0.00,VWS V14.00,2013-02-18 21:01:00,
2013-02-18 16:06:00,42.1,23.8,28.85,South,178,5.4,8.7,48,0.00,,,0.00,VWS V14.00,2013-02-18 21:06:00,
2013-02-18 16:11:00,41.9,23.7,28.85,SE,133,4.0,8.7,48,0.00,,,0.00,VWS V14.00,2013-02-18 21:11:00,
2013-02-18 16:16:00,41.9,24.1,28.85,ESE,123,4.0,8.7,49,0.00,,,0.00,VWS V14.00,2013-02-18 21:16:00,
2013-02-18 16:21:00,41.9,24.1,28.82,SE,131,5.8,8.7,49,0.00,,,0.00,VWS V14.00,2013-02-18 21:21:00,
2013-02-18 16:26:00,41.7,24.0,28.82,SSE,156,5.8,10.1,49,0.00,,,0.00,VWS V14.00,2013-02-18 21:26:00,
2013-02-18 16:31:00,41.5,23.8,28.82,SE,142,8.1,8.7,49,0.00,,,0.00,VWS V14.00,2013-02-18 21:31:00,
2013-02-18 16:36:00,41.5,23.8,28.82,SE,135,5.8,10.1,49,0.00,,,0.00,VWS V14.00,2013-02-18 21:36:00,
2013-02-18 16:41:00,41.5,23.8,28.82,South,187,4.9,10.1,49,0.00,,,0.00,VWS V14.00,2013-02-18 21:41:00,
2013-02-18 16:46:00,41.4,24.1,28.82,SE,131,5.4,10.1,50,0.00,,,0.00,VWS V14.00,2013-02-18 21:46:00,
2013-02-18 16:51:00,41.2,24.0,28.82,SE,135,2.2,10.1,50,0.00,,,0.00,VWS V14.00,2013-02-18 21:51:00,
2013-02-18 16:56:00,41.2,24.0,28.82,SSE,157,4.0,10.1,50,0.00,,,0.00,VWS V14.00,2013-02-18 21:56:00,
2013-02-18 17:01:00,41.0,23.8,28.82,ESE,106,4.0,8.3,50,0.00,,,0.00,VWS V14.00,2013-02-18 22:01:00,
2013-02-18 17:06:00,40.8,24.1,28.82,SE,128,4.9,8.3,51,0.00,,,0.00,VWS V14.00,2013-02-18 22:06:00,
2013-02-18 17:11:00,40.6,23.9,28.82,SE,140,5.8,8.3,51,0.00,,,0.00,VWS V14.00,2013-02-18 22:11:00,
2013-02-18 17:16:00,40.5,23.8,28.82,SE,139,10.5,10.5,51,0.00,,,0.00,VWS V14.00,2013-02-18 22:16:00,
2013-02-18 17:21:00,40.5,24.2,28.79,SE,124,5.4,10.5,52,0.00,,,0.00,VWS V14.00,2013-02-18 22:21:00,
2013-02-18 17:26:00,40.3,24.1,28.79,ESE,122,4.0,10.5,52,0.00,,,0.00,VWS V14.00,2013-02-18 22:26:00,
2013-02-18 17:31:00,40.3,24.5,28.79,SE,128,5.8,6.7,53,0.00,,,0.00,VWS V14.00,2013-02-18 22:31:00,
2013-02-18 17:36:00,40.1,24.4,28.79,ESE,122,4.0,6.7,53,0.00,,,0.00,VWS V14.00,2013-02-18 22:36:00,
2013-02-18 17:41:00,40.1,24.8,28.79,ESE,116,3.6,8.7,54,0.00,,,0.00,VWS V14.00,2013-02-18 22:41:00,
2013-02-18 17:46:00,39.9,24.6,28.79,SSE,150,5.8,8.7,54,0.00,,,0.00,VWS V14.00,2013-02-18 22:46:00,
2013-02-18 17:51:00,39.9,25.1,28.79,SE,145,3.1,8.7,55,0.00,,,0.00,VWS V14.00,2013-02-18 22:51:00,
2013-02-18 17:56:00,39.9,25.1,28.79,SSE,166,2.7,8.7,55,0.00,,,0.00,VWS V14.00,2013-02-18 22:56:00,
2013-02-18 18:01:00,39.7,25.3,28.79,SE,139,6.3,6.3,56,0.00,,,0.00,VWS V14.00,2013-02-18 23:01:00,
2013-02-18 18:06:00,39.7,25.3,28.79,SE,130,0.0,6.3,56,0.00,,,0.00,VWS V14.00,2013-02-18 23:06:00,
2013-02-18 18:11:00,39.9,25.9,28.79,SE,136,3.6,7.6,57,0.00,,,0.00,VWS V14.00,2013-02-18 23:11:00,
2013-02-18 18:16:00,39.9,26.4,28.79,SE,143,3.6,7.6,58,0.00,,,0.00,VWS V14.00,2013-02-18 23:16:00,
2013-02-18 18:21:00,39.7,26.2,28.79,ESE,121,5.4,7.6,58,0.00,,,0.00,VWS V14.00,2013-02-18 23:21:00,
2013-02-18 18:26:00,39.9,26.8,28.79,SSE,158,2.2,7.6,59,0.00,,,0.00,VWS V14.00,2013-02-18 23:26:00,
2013-02-18 18:31:00,39.9,26.8,28.79,SE,139,4.0,8.1,59,0.00,,,0.00,VWS V14.00,2013-02-18 23:31:00,
2013-02-18 18:36:00,39.9,27.2,28.79,SSE,158,3.1,8.7,60,0.00,,,0.00,VWS V14.00,2013-02-18 23:36:00,
2013-02-18 18:41:00,39.9,27.2,28.79,SSE,167,4.0,8.7,60,0.00,,,0.00,VWS V14.00,2013-02-18 23:41:00,
2013-02-18 18:46:00,40.1,27.8,28.79,SE,130,4.9,8.7,61,0.00,,,0.00,VWS V14.00,2013-02-18 23:46:00,
2013-02-18 18:52:00,40.3,28.3,28.79,SSE,167,5.4,8.7,62,0.00,,,0.00,VWS V14.00,2013-02-18 23:52:00,
2013-02-18 18:57:00,40.5,28.9,28.79,South,179,5.8,8.7,63,0.00,,,0.00,VWS V14.00,2013-02-18 23:57:00,
2013-02-18 19:02:00,40.5,28.9,28.76,SE,139,4.9,5.8,63,0.00,,,0.00,VWS V14.00,2013-02-19 00:02:00,
2013-02-18 19:07:00,40.5,29.3,28.76,SSE,168,3.6,7.6,64,0.00,,,0.00,VWS V14.00,2013-02-19 00:07:00,
2013-02-18 19:12:00,40.5,29.3,28.76,SSE,151,3.6,8.1,64,0.00,,,0.00,VWS V14.00,2013-02-19 00:12:00,
2013-02-18 19:17:00,40.6,29.8,28.79,SSW,198,4.0,8.1,65,0.00,,,0.00,VWS V14.00,2013-02-19 00:17:00,
2013-02-18 19:22:00,40.6,29.8,28.79,SSE,158,3.6,8.1,65,0.00,,,0.00,VWS V14.00,2013-02-19 00:22:00,
2013-02-18 19:27:00,40.6,30.2,28.79,SSW,194,5.4,8.1,66,0.00,,,0.00,VWS V14.00,2013-02-19 00:27:00,
2013-02-18 19:32:00,40.6,30.9,28.76,SSE,158,4.0,6.3,68,0.00,,,0.00,VWS V14.00,2013-02-19 00:32:00,
2013-02-18 19:37:00,40.5,31.1,28.76,SSE,160,4.9,7.6,69,0.00,,,0.00,VWS V14.00,2013-02-19 00:37:00,
2013-02-18 19:42:00,40.3,30.9,28.76,South,180,3.6,7.6,69,0.00,,,0.00,VWS V14.00,2013-02-19 00:42:00,
2013-02-18 19:47:00,40.3,31.3,28.76,SSE,167,6.3,7.6,70,0.00,,,0.00,VWS V14.00,2013-02-19 00:47:00,
2013-02-18 19:52:00,40.3,31.6,28.76,South,170,4.0,7.6,71,0.00,,,0.00,VWS V14.00,2013-02-19 00:52:00,
2013-02-18 19:57:00,40.3,31.6,28.76,SSE,156,4.0,7.6,71,0.00,,,0.00,VWS V14.00,2013-02-19 00:57:00,
2013-02-18 20:02:00,40.3,31.6,28.76,South,172,5.8,5.8,71,0.00,,,0.00,VWS V14.00,2013-02-19 01:02:00,
2013-02-18 20:07:00,40.3,31.6,28.76,SSE,163,3.1,8.7,71,0.00,,,0.00,VWS V14.00,2013-02-19 01:07:00,
2013-02-18 20:12:00,40.5,32.2,28.76,SE,137,4.0,8.7,72,0.00,,,0.00,VWS V14.00,2013-02-19 01:12:00,
2013-02-18 20:17:00,40.5,32.2,28.73,ESE,120,7.6,8.7,72,0.00,,,0.00,VWS V14.00,2013-02-19 01:17:00,
2013-02-18 20:22:00,40.5,31.8,28.73,SSE,168,5.8,8.7,71,0.00,,,0.00,VWS V14.00,2013-02-19 01:22:00,
2013-02-18 20:27:00,40.5,31.8,28.73,SE,145,4.0,8.7,71,0.00,,,0.00,VWS V14.00,2013-02-19 01:27:00,
2013-02-18 20:32:00,40.5,31.8,28.73,ESE,122,3.6,5.4,71,0.00,,,0.00,VWS V14.00,2013-02-19 01:32:00,
2013-02-18 20:37:00,40.3,32.0,28.73,SSE,155,2.7,5.4,72,0.00,,,0.00,VWS V14.00,2013-02-19 01:37:00,
2013-02-18 20:42:00,40.3,32.0,28.73,SE,136,3.1,5.4,72,0.00,,,0.00,VWS V14.00,2013-02-19 01:42:00,
2013-02-18 20:47:00,40.3,32.0,28.73,SSE,159,3.6,5.4,72,0.00,,,0.00,VWS V14.00,2013-02-19 01:47:00,
2013-02-18 20:52:00,40.3,32.0,28.73,ESE,123,2.7,5.8,72,0.00,,,0.00,VWS V14.00,2013-02-19 01:52:00,
2013-02-18 20:57:00,40.3,32.0,28.73,South,171,4.5,6.3,72,0.00,,,0.00,VWS V14.00,2013-02-19 01:57:00,
2013-02-18 21:02:00,40.3,32.0,28.70,South,169,2.7,5.4,72,0.00,,,0.00,VWS V14.00,2013-02-19 02:02:00,
2013-02-18 21:07:00,40.3,32.0,28.70,SE,143,7.6,7.6,72,0.00,,,0.00,VWS V14.00,2013-02-19 02:07:00,
2013-02-18 21:12:00,40.6,32.3,28.70,South,170,2.7,8.1,72,0.00,,,0.00,VWS V14.00,2013-02-19 02:12:00,
2013-02-18 21:17:00,40.8,32.5,28.70,South,183,3.1,8.1,72,0.00,,,0.00,VWS V14.00,2013-02-19 02:17:00,
2013-02-18 21:22:00,41.0,32.3,28.70,SSE,147,8.1,8.1,71,0.00,,,0.00,VWS V14.00,2013-02-19 02:22:00,
2013-02-18 21:27:00,41.4,32.7,28.70,South,169,3.1,10.1,71,0.00,,,0.00,VWS V14.00,2013-02-19 02:27:00,
2013-02-18 21:32:00,41.7,32.7,28.70,South,173,7.6,7.6,70,0.00,,,0.00,VWS V14.00,2013-02-19 02:32:00,
2013-02-18 21:37:00,42.3,32.8,28.70,SW,218,5.4,10.1,69,0.00,,,0.00,VWS V14.00,2013-02-19 02:37:00,
2013-02-18 21:42:00,42.6,32.8,28.70,South,173,4.0,10.5,68,0.00,,,0.00,VWS V14.00,2013-02-19 02:42:00,
2013-02-18 21:47:00,43.2,33.0,28.70,South,184,5.8,10.5,67,0.00,,,0.00,VWS V14.00,2013-02-19 02:47:00,
2013-02-18 21:52:00,43.5,32.9,28.70,SSW,201,8.1,10.5,66,0.00,,,0.00,VWS V14.00,2013-02-19 02:52:00,
2013-02-18 21:57:00,44.1,32.7,28.70,SSW,196,4.0,10.5,64,0.00,,,0.00,VWS V14.00,2013-02-19 02:57:00,
2013-02-18 22:03:00,44.2,32.8,28.70,SE,135,5.4,13.6,64,0.00,,,0.00,VWS V14.00,2013-02-19 03:03:00,
2013-02-18 22:08:00,44.6,32.4,28.70,SSW,195,12.3,13.6,62,0.00,,,0.00,VWS V14.00,2013-02-19 03:08:00,
2013-02-18 22:13:00,44.4,32.2,28.70,SW,214,6.7,13.6,62,0.00,,,0.00,VWS V14.00,2013-02-19 03:13:00,
2013-02-18 22:18:00,44.8,32.2,28.67,SW,214,9.6,13.6,61,0.00,,,0.00,VWS V14.00,2013-02-19 03:18:00,
2013-02-18 22:23:00,45.1,32.1,28.67,South,174,13.2,13.6,60,0.00,,,0.00,VWS V14.00,2013-02-19 03:23:00,
2013-02-18 22:28:00,45.1,32.1,28.67,South,187,3.6,14.1,60,0.00,,,0.00,VWS V14.00,2013-02-19 03:28:00,
2013-02-18 22:33:00,45.1,32.1,28.67,SSW,202,4.0,13.2,60,0.00,,,0.00,VWS V14.00,2013-02-19 03:33:00,
2013-02-18 22:38:00,45.3,32.3,28.67,WSW,253,8.1,16.3,60,0.00,,,0.00,VWS V14.00,2013-02-19 03:38:00,
2013-02-18 22:43:00,45.3,32.3,28.67,South,171,4.0,16.3,60,0.00,,,0.00,VWS V14.00,2013-02-19 03:43:00,
2013-02-18 22:48:00,45.3,32.7,28.67,SSW,200,8.3,16.3,61,0.00,,,0.00,VWS V14.00,2013-02-19 03:48:00,
2013-02-18 22:53:00,45.3,32.7,28.67,South,191,7.2,16.3,61,0.00,,,0.00,VWS V14.00,2013-02-19 03:53:00,
2013-02-18 22:58:00,45.3,32.7,28.67,SSW,205,6.3,16.3,61,0.00,,,0.00,VWS V14.00,2013-02-19 03:58:00,
2013-02-18 23:03:00,45.5,32.8,28.64,South,170,5.8,12.3,61,0.00,,,0.00,VWS V14.00,2013-02-19 04:03:00,
2013-02-18 23:08:00,45.3,32.7,28.64,SE,131,3.6,14.5,61,0.00,,,0.00,VWS V14.00,2013-02-19 04:08:00,
2013-02-18 23:13:00,45.3,32.7,28.64,SSE,165,6.3,15.4,61,0.00,,,0.00,VWS V14.00,2013-02-19 04:13:00,
2013-02-18 23:18:00,45.5,33.2,28.64,SSE,160,3.6,15.4,62,0.00,,,0.00,VWS V14.00,2013-02-19 04:18:00,
2013-02-18 23:23:00,45.5,33.2,28.64,South,186,6.3,15.4,62,0.00,,,0.00,VWS V14.00,2013-02-19 04:23:00,
2013-02-18 23:28:00,45.7,33.8,28.64,SSW,195,10.1,15.4,63,0.00,,,0.00,VWS V14.00,2013-02-19 04:28:00,
2013-02-18 23:33:00,45.3,34.3,28.64,SSE,152,10.1,10.5,65,0.00,,,0.00,VWS V14.00,2013-02-19 04:33:00,
2013-02-18 23:38:00,45.7,34.2,28.64,SSW,205,15.4,15.4,64,0.00,,,0.00,VWS V14.00,2013-02-19 04:38:00,
2013-02-18 23:43:00,45.7,34.2,28.64,SSE,164,6.3,15.4,64,0.00,,,0.00,VWS V14.00,2013-02-19 04:43:00,
2013-02-18 23:48:00,45.9,34.4,28.64,South,184,5.4,17.9,64,0.00,,,0.00,VWS V14.00,2013-02-19 04:48:00,
2013-02-18 23:53:00,45.3,34.6,28.64,SSW,208,6.3,17.9,66,0.00,,,0.00,VWS V14.00,2013-02-19 04:53:00,
2013-02-18 23:58:00,45.3,35.0,28.64,SW,216,6.3,17.9,67,0.00,,,0.00,VWS V14.00,2013-02-19 04:58:00,